Regional Weather Roundup
Issued by NWS

Home | Current Version | Previous Version | Text Only | Print | Product List | Glossary Off
Versions: 1 2 3 4 5 6 7 8 9 10 11 12 13 14 15 16 17 18 19 20 21 22 23 24 25 26 27 28 29 30 31 32 33 34 35 36 37 38 39 40 41 42 43 44 45 46 47 48 49 50

000
ASUS45 KSLC 301310
RWRUT

UTAH REGIONAL WEATHER ROUNDUP
NATIONAL WEATHER SERVICE SALT LAKE CITY UT
700 AM MDT MON MAY 30 2016

UTZ001>011-023>025-301400-

NORTHERN UTAH

CITY           SKY/WX    TMP DP  RH WIND       PRES   REMARKS
BRIGHAM CITY     N/A     56  47  70 CALM      30.11R
HILL AFB       CLEAR     53  45  76 E10       30.11S
LOGAN          CLEAR     48  46  93 CALM      30.11R
OGDEN          CLEAR     54  46  74 S5        30.10S
PROVO AIRPORT  PTCLDY    54  45  71 NE3       30.11F
SALT LAKE CITY PTCLDY    57  45  64 E9        30.10R
VERNAL         CLOUDY    51  41  68 CALM      30.12R
WENDOVER       PTCLDY    55  43  62 CALM      30.10R
HEBER CITY     PTCLDY    45  41  87 E6        30.17S
WEST JORDAN    CLEAR     52  45  76 SW5       30.12R

$$

UTZ012>022-026-027-301400-

SOUTHERN/CENTRAL UTAH

CITY           SKY/WX    TMP DP  RH WIND       PRES   REMARKS
BLANDING       MOSUNNY   52  30  42 NE9       30.16S
BRYCE CANYON   PTCLDY    38  30  73 CALM      30.24R
CEDAR CITY     CLEAR     45  33  63 SE5       30.13R
DELTA          MOCLDY    54  43  66 SW5       30.11R
HANKSVILLE     PTCLDY    52  32  46 S3        30.08R
MILFORD        CLOUDY    48  39  71 CALM      30.12R
MOAB/CYNLANDS  PTSUNNY   56  35  45 NW9       30.05R
PRICE          MOCLDY    56  36  47 NW3       30.13S
ST GEORGE      MOSUNNY   66  27  22 E6        30.00R

$$

REGIONAL REPORTS     COLORADO/ARIZONA

CITY           SKY/WX    TMP DP  RH WIND       PRES   REMARKS
CRAIG, CO      CLOUDY    42  38  85 CALM      30.18R
GRAND JUNCTION CLOUDY    54  39  57 S7        30.06S
RIFLE          CLOUDY    44  36  73 E3        30.13R
MONTROSE       CLOUDY    47  31  53 SE7       30.13S
CORTEZ         SUNNY     44  28  53 E5        30.13R
PAGE, AZ       CLEAR     65  25  22 S5        30.02R
GRAND CANYON   CLEAR     35  17  47 E3        30.17S
KINGMAN        CLEAR     56  22  26 CALM      29.99R
FLAGSTAFF      CLEAR     36  21  54 NE3       30.20R

$$

REGIONAL REPORTS    NEVADA/IDAHO/WYOMING

CITY           SKY/WX    TMP DP  RH WIND       PRES   REMARKS
LAS VEGAS, NV  PTCLDY    69  23  17 S6        29.88R
ELY            CLEAR     38  33  82 S12       30.18S WCI  30
ELKO           CLEAR     48  41  76 NE3       30.15R
POCATELLO, ID  PTCLDY    52  44  74 SW16      30.10R
BURLEY         CLEAR     54  40  59 W14       30.09R
EVANSTON, WY   CLOUDY    43  39  86 SW9       30.20R
ROCK SPRINGS   CLOUDY    45  39  79 NW3       30.18R
KEMMERER         N/A     45  37  76 NW6       30.20S

$$



USA.gov is the U.S. government's official web portal to all federal, state and local government web resources and services.